Date String (YYYY-MM-DD hh:mm:ss) UTC,Instrument flags,Ambient pressure (hPa),Sample flow (lpm),Bypass flow (lpm),Sample temperature (°C),Ambient temperature (°C),ASC tube jacket temperature (°C),LED temperature (°C),Box temperature (°C),Sample RH (%),Span deviation,Mass concentration (μg/m³),Mass concentration (μg/m³),Mass concentration (μg/m³)
DateTimeUTC,F1_M11,P_M11,Q1_M11,Q2_M11,T1_M11,T2_M11,T3_M11,T4_M11,T5_M11,U1_M11,ZSPAN_M11,X0_M11,X2_M11,X1_M11
2022-08-30 03:00:00,,0831.4,5.01,0.00,29.7,28.8,00.0,38.3,31.7,21.6,0000.0,0018.66,0006.80,0005.43
2022-08-30 03:01:00,,0831.4,5.00,0.00,29.8,28.6,00.0,38.4,31.7,21.5,0000.0,0018.73,0006.82,0005.46
2022-08-30 03:02:00,,0831.4,4.98,0.00,29.7,27.2,00.0,38.3,31.5,21.5,0000.0,0018.34,0006.89,0005.48
2022-08-30 03:03:00,,0831.3,5.02,0.00,29.7,26.2,00.0,38.3,31.4,21.6,0000.0,0018.99,0006.98,0005.51
2022-08-30 03:04:00,,0831.4,4.99,0.00,29.6,26.2,00.0,38.2,31.3,21.7,0000.0,0018.93,0006.99,0005.52
2022-08-30 03:05:00,,0831.4,5.00,0.00,29.5,26.5,00.0,38.2,31.2,21.6,0000.0,0019.04,0007.01,0005.52
2022-08-30 03:06:00,,0831.4,5.00,0.00,29.4,26.9,00.0,38.2,31.2,21.8,0000.0,0018.78,0007.03,0005.53
2022-08-30 03:07:00,,0831.4,5.01,0.00,29.4,27.2,00.0,38.2,31.2,21.8,0000.0,0018.46,0006.99,0005.53
2022-08-30 03:08:00,,0831.4,4.99,0.00,29.4,27.5,00.0,38.2,31.3,21.9,0000.0,0017.48,0006.96,0005.53
2022-08-30 03:09:00,,0831.4,5.00,0.00,29.4,27.8,00.0,38.2,31.3,21.7,0000.0,0017.87,0006.91,0005.52
2022-08-30 03:10:00,,0831.4,5.00,0.00,29.5,28.0,00.0,38.2,31.3,21.9,0000.0,0018.45,0006.87,0005.50
2022-08-30 03:11:00,,0831.4,5.00,0.00,29.5,28.1,00.0,38.2,31.4,21.8,0000.0,0018.21,0006.86,0005.49
2022-08-30 03:12:00,,0831.4,4.98,0.00,29.5,28.3,00.0,38.2,31.4,21.8,0000.0,0017.80,0006.81,0005.46
2022-08-30 03:13:00,,0831.5,5.00,0.00,29.5,28.4,00.0,38.2,31.5,21.8,0000.0,0017.37,0006.78,0005.45
2022-08-30 03:14:00,,0831.4,5.00,0.00,29.6,28.5,00.0,38.2,31.5,21.8,0000.0,0016.83,0006.70,0005.44
2022-08-30 03:15:00,,0831.5,5.00,0.00,29.6,28.6,00.0,38.3,31.5,21.8,0000.0,0016.39,0006.63,0005.43
2022-08-30 03:16:00,,0831.5,5.01,0.00,29.6,28.7,00.0,38.3,31.6,21.8,0000.0,0016.54,0006.65,0005.44
2022-08-30 03:17:00,,0831.5,5.01,0.00,29.7,28.8,00.0,38.3,31.7,21.6,0000.0,0016.62,0006.70,0005.44
2022-08-30 03:18:00,,0831.5,4.98,0.00,29.7,28.9,00.0,38.3,31.7,21.7,0000.0,0017.20,0006.79,0005.45
2022-08-30 03:19:00,,0831.5,5.01,0.00,29.8,28.7,00.0,38.4,31.7,21.5,0000.0,0017.16,0006.81,0005.45
2022-08-30 03:20:00,,0831.5,5.00,0.00,29.8,27.5,00.0,38.4,31.6,21.5,0000.0,0016.70,0006.82,0005.45
2022-08-30 03:21:00,,0831.5,4.99,0.00,29.7,26.9,00.0,38.3,31.5,21.4,0000.0,0016.30,0006.84,0005.44
2022-08-30 03:22:00,,0831.5,5.00,0.00,29.7,27.0,00.0,38.3,31.4,21.4,0000.0,0016.57,0006.83,0005.42
2022-08-30 03:23:00,,0831.5,5.01,0.00,29.6,27.3,00.0,38.3,31.4,21.5,0000.0,0016.92,0006.86,0005.41
2022-08-30 03:24:00,,0831.5,4.99,0.00,29.6,27.6,00.0,38.3,31.4,21.6,0000.0,0017.63,0006.83,0005.40
2022-08-30 03:25:00,,0831.5,5.00,0.00,29.6,27.8,00.0,38.3,31.4,21.6,0000.0,0018.72,0006.88,0005.38
2022-08-30 03:26:00,,0831.5,5.01,0.00,29.6,28.0,00.0,38.3,31.5,21.6,0000.0,0019.97,0006.92,0005.37
2022-08-30 03:27:00,,0831.6,5.00,0.00,29.6,28.2,00.0,38.3,31.5,21.6,0000.0,0019.11,0006.91,0005.35
2022-08-30 03:28:00,,0831.6,5.00,0.00,29.6,28.4,00.0,38.3,31.5,21.6,0000.0,0019.17,0006.90,0005.35
2022-08-30 03:29:00,,0831.6,4.98,0.00,29.7,28.5,00.0,38.3,31.6,21.4,0000.0,0019.16,0006.85,0005.33
2022-08-30 03:30:00,,0831.6,5.01,0.00,29.7,28.7,00.0,38.4,31.6,21.5,0000.0,0020.84,0006.81,0005.32
2022-08-30 03:31:00,,0831.7,5.01,0.00,29.7,28.8,00.0,38.4,31.7,21.6,0000.0,0021.40,0006.77,0005.31
2022-08-30 03:32:00,,0831.7,5.01,0.00,29.8,28.8,00.0,38.4,31.7,21.6,0000.0,0021.00,0006.74,0005.33
2022-08-30 03:33:00,,0831.7,4.98,0.00,29.8,28.6,00.0,38.4,31.7,21.7,0000.0,0021.38,0006.74,0005.37
2022-08-30 03:34:00,,0831.6,5.00,0.00,29.8,27.2,00.0,38.4,31.5,21.6,0000.0,0022.81,0006.76,0005.40
2022-08-30 03:35:00,,0831.7,5.01,0.00,29.7,26.1,00.0,38.4,31.4,21.7,0000.0,0022.29,0006.78,0005.41
2022-08-30 03:36:00,,0831.7,4.98,0.00,29.6,26.2,00.0,38.3,31.3,21.8,0000.0,0021.17,0006.74,0005.44
2022-08-30 03:37:00,,0831.7,5.01,0.00,29.5,26.4,00.0,38.2,31.2,21.7,0000.0,0019.64,0006.69,0005.45
2022-08-30 03:38:00,,0831.7,5.00,0.00,29.5,26.8,00.0,38.2,31.2,21.7,0000.0,0019.33,0006.65,0005.44
2022-08-30 03:39:00,,0831.8,4.99,0.00,29.4,27.2,00.0,38.2,31.2,21.8,0000.0,0019.30,0006.56,0005.41
2022-08-30 03:40:00,,0831.9,5.00,0.00,29.4,27.5,00.0,38.2,31.2,22.6,0000.0,0019.68,0006.54,0005.40
2022-08-30 03:41:00,,0832.0,5.00,0.00,29.5,27.8,00.0,38.2,31.3,23.1,0000.0,0018.76,0006.53,0005.40
2022-08-30 03:42:00,,0831.9,5.00,0.00,29.5,28.0,00.0,38.2,31.3,22.6,0000.0,0017.86,0006.53,0005.39
2022-08-30 03:43:00,,0832.0,5.00,0.00,29.5,28.1,00.0,38.2,31.4,22.1,0000.0,0018.31,0006.50,0005.35
2022-08-30 03:44:00,,0832.1,4.99,0.00,29.5,28.3,00.0,38.2,31.4,22.1,0000.0,0017.78,0006.44,0005.30
2022-08-30 03:45:00,,0832.1,5.00,0.00,29.5,28.4,00.0,38.2,31.5,22.5,0000.0,0016.99,0006.39,0005.26
2022-08-30 03:46:00,,0832.1,5.00,0.00,29.6,28.5,00.0,38.3,31.5,22.7,0000.0,0016.65,0006.33,0005.22
2022-08-30 03:47:00,,0832.1,5.00,0.00,29.6,28.6,00.0,38.3,31.5,22.8,0000.0,0016.81,0006.33,0005.20
2022-08-30 03:48:00,,0832.1,4.99,0.00,29.6,28.7,00.0,38.3,31.6,22.9,0000.0,0017.27,0006.39,0005.17
2022-08-30 03:49:00,,0832.1,5.00,0.00,29.7,28.7,00.0,38.3,31.6,23.2,0000.0,0017.71,0006.43,0005.16
2022-08-30 03:50:00,,0832.0,5.01,0.00,29.7,28.8,00.0,38.3,31.7,23.6,0000.0,0017.98,0006.48,0005.18
2022-08-30 03:51:00,,0832.1,4.99,0.00,29.8,28.9,00.0,38.4,31.7,23.6,0000.0,0017.44,0006.49,0005.19
2022-08-30 03:52:00,,0832.1,5.00,0.00,29.8,28.8,00.0,38.4,31.7,23.5,0000.0,0017.28,0006.54,0005.18
2022-08-30 03:53:00,,0832.1,5.01,0.00,29.8,27.6,00.0,38.4,31.7,23.3,0000.0,0017.51,0006.55,0005.18
2022-08-30 03:54:00,,0832.1,4.99,0.00,29.8,26.9,00.0,38.4,31.6,23.1,0000.0,0017.34,0006.56,0005.19
2022-08-30 03:55:00,,0832.1,4.99,0.00,29.7,27.0,00.0,38.3,31.5,23.0,0000.0,0018.13,0006.62,0005.20
2022-08-30 03:56:00,,0832.1,5.01,0.00,29.6,27.3,00.0,38.3,31.4,22.7,0000.0,0017.86,0006.58,0005.20
2022-08-30 03:57:00,,0832.1,4.99,0.00,29.6,27.6,00.0,38.3,31.4,22.6,0000.0,0019.13,0006.60,0005.20
2022-08-30 03:58:00,,0832.2,5.01,0.00,29.6,27.9,00.0,38.3,31.4,22.7,0000.0,0019.57,0006.59,0005.18
2022-08-30 03:59:00,,0832.2,4.99,0.00,29.6,28.1,00.0,38.3,31.5,22.4,0000.0,0019.39,0006.58,0005.18
